Estherville, IA

11:49 AM CDT on June 29, 2017 (GMT -0500)
Estherville Municipal

Weather History for KEST - June, 2014

Change the Weather History Date:

Tuesday, June 17, 2014

  Actual Average Record
Temperature  
Mean Temperature 69 °F 69 °F  
Max Temperature 79 °F 80 °F 94 °F (1949)
Min Temperature 59 °F 58 °F 44 °F (2000)
Degree Days  
Heating Degree Days 0 1  
Month to date heating degree days 31 34  
Since 1 June heating degree days 31 34  
Since 1 July heating degree days 8574 7732  
Cooling Degree Days 4 5  
Month to date cooling degree days 25 59  
Year to date cooling degree days 74 95  
Since 1 June cooling degree days 25 59  
Growing Degree Days 19 (Base 50)    
Moisture  
Dew Point 70 °F    
Average Humidity 90    
Maximum Humidity 100    
Minimum Humidity 79    
Precipitation  
Precipitation 0.02 in 0.14 in 1.15 in (1990)
Month to date precipitation 7.31 2.46  
Sea Level Pressure  
Sea Level Pressure 29.77 in    
Wind  
Wind Speed 14 mph (SE)    
Max Wind Speed 32 mph    
Max Gust Speed 38 mph    
Visibility 10 miles    
Events Rain , Thunderstorm    
T = Trace of Precipitation, MM = Missing Value Source: NWS Daily Summary

Daily Weather History Graph

Daily Weather History Graph

Search for Another Location

Airport or City:

Trip Planner

Search our weather history database for the weather conditions in past years. The results will help you decide how hot, cold, wet, or windy it might be!

Date:

Astronomy

Jun. 17, 2014 Rise Set
Actual Time 5:37 AM CDT 9:02 PM CDT
Civil Twilight 5:02 AM CDT 9:37 PM CDT
Nautical Twilight 4:15 AM CDT 10:24 PM CDT
Astronomical Twilight 3:16 AM CDT 11:23 PM CDT
Moon No Moon Rise 11:01 AM CDT (6/17)
Length of Visible Light 16h 35m
Length of Day
15h 24m
Waning Gibbous, 73% of the Moon is Illuminated
Jun 17
Waning Gibbous
Jun 19
Last Quarter
Jun 27
New
Jul 5
First Quarter
Jul 12
Full

Hourly Weather History & Observations

Time (CDT) Temp. Dew Point Humidity Pressure Visibility Wind Dir Wind Speed Gust Speed Precip Events Conditions
12:27 AM 61.0 °F - N/A% 29.87 in 6.0 mi South 15.0 mph - 0.09 in Rain , Thunderstorm Rain
12:42 AM 61.0 °F - N/A% 29.81 in 6.0 mi SSE 23.0 mph - 0.13 in Rain Rain
12:52 AM 61.0 °F - N/A% 29.76 in 8.0 mi SSE 28.8 mph 38.0 mph 0.14 in Rain Light Rain
1:52 AM 61.0 °F - N/A% 29.69 in 10.0 mi SE 26.5 mph 34.5 mph 0.02 in   Overcast
2:52 AM 61.0 °F - N/A% 29.65 in 10.0 mi SE 27.6 mph 33.4 mph 0.01 in   Clear
3:52 AM 62.1 °F - N/A% 29.68 in 10.0 mi SE 17.3 mph - N/A   Clear
4:07 AM 63.0 °F - N/A% 29.78 in 10.0 mi West 15.0 mph 36.8 mph N/A   Partly Cloudy
4:32 AM 62.1 °F - N/A% 29.81 in 10.0 mi West 13.8 mph - N/A   Mostly Cloudy
4:52 AM 62.1 °F - N/A% 29.78 in 10.0 mi South 10.4 mph - N/A   Scattered Clouds
5:52 AM 60.1 °F - N/A% 29.76 in 10.0 mi South 5.8 mph - N/A   Clear
6:52 AM 59.0 °F - N/A% 29.80 in 10.0 mi ENE 4.6 mph - N/A   Clear
7:52 AM 62.1 °F - N/A% 29.81 in 10.0 mi East 8.1 mph - N/A   Mostly Cloudy
8:52 AM 64.0 °F 61.0 °F 90% 29.81 in 10.0 mi SE 13.8 mph - N/A   Scattered Clouds
9:52 AM 66.0 °F 62.1 °F 87% 29.81 in 10.0 mi SE 11.5 mph - N/A   Overcast
10:52 AM 69.1 °F 64.9 °F 87% 29.79 in 10.0 mi SE 15.0 mph - N/A   Scattered Clouds
11:52 AM 71.1 °F 64.9 °F 81% 29.79 in 10.0 mi SE 15.0 mph - N/A   Overcast
12:52 PM 73.9 °F 68.0 °F 82% 29.79 in 10.0 mi SE 15.0 mph - N/A   Mostly Cloudy
1:52 PM 75.0 °F 69.1 °F 82% 29.78 in 10.0 mi ESE 13.8 mph - N/A   Overcast
2:52 PM 75.9 °F 69.1 °F 79% 29.77 in 10.0 mi ESE 12.7 mph - N/A   Overcast
3:52 PM 77.0 °F 71.1 °F 82% 29.77 in 10.0 mi ESE 15.0 mph - N/A   Overcast
4:52 PM 79.0 °F 72.0 °F 79% 29.76 in 10.0 mi ESE 15.0 mph - N/A   Scattered Clouds
5:52 PM 78.1 °F 72.0 °F 81% 29.76 in 10.0 mi ESE 13.8 mph - N/A   Partly Cloudy
6:52 PM 78.1 °F 72.0 °F 81% 29.76 in 10.0 mi ESE 16.1 mph - N/A   Scattered Clouds
7:52 PM 77.0 °F 73.0 °F 88% 29.77 in 10.0 mi ESE 12.7 mph - N/A   Overcast
8:52 PM 75.9 °F 73.0 °F 91% 29.77 in 10.0 mi East 9.2 mph - N/A   Scattered Clouds
9:52 PM 75.0 °F 73.0 °F 94% 29.78 in 10.0 mi ESE 9.2 mph - N/A   Mostly Cloudy
10:52 PM 73.9 °F 73.0 °F 97% 29.76 in 9.0 mi ESE 12.7 mph - N/A   Partly Cloudy
11:52 PM 75.0 °F 73.9 °F 96% 29.74 in 7.0 mi SE 15.0 mph - N/A   Clear